Regional Weather Roundup
Issued by NWS

Home | Current Version | Previous Version | Text Only | Print | Product List | Glossary Off
Versions: 1 2 3 4 5 6 7 8 9 10 11 12 13 14 15 16 17 18 19 20 21 22 23 24 25 26 27 28 29 30 31 32 33 34 35 36 37 38 39 40 41 42 43 44 45 46 47 48 49 50

888
ASUS45 KBOU 240210
RWRCO

WEATHER ROUNDUP FOR COLORADO
NATIONAL WEATHER SERVICE PUEBLO CO
800 PM MDT MON APR 23 2018

NOTE: "FAIR" INDICATES FEW OR NO CLOUDS BELOW 12000 FEET WITH NO
SIGNIFICANT WEATHER AND/OR OBSTRUCTIONS TO VISIBILITY.

COZ001>005-013-030-031-240300-
...NORTHWEST COLORADO...

CITY           SKY/WX    TMP DP  RH WIND       PRES   REMARKS
CRAIG          CLOUDY    56  33  42 NW6       30.12R
HAYDEN         CLOUDY    52  35  52 CALM      30.14R
MEEKER         CLOUDY    58  35  42 NE13G21   30.10R
RABBIT EARS PA NOT AVBL
STEAMBOAT SPGS MOCLDY    53  33  46 CALM      30.15R
WALDEN         CLOUDY    43  28  56 N8        30.20R
$$

COZ006>008-011-240300-
...WEST CENTRAL VALLEYS...

CITY           SKY/WX    TMP DP  RH WIND       PRES   REMARKS
GRAND JUNCTION CLOUDY    71  25  17 NW32G40   29.98R
MONTROSE       CLOUDY    67  17  14 N5        30.02S
EAGLE          CLOUDY    60  27  28 VRB5G18   30.10R
RIFLE          CLOUDY    67  28  23 NW9       30.02R
DELTA          NOT AVBL
NUCLA          FAIR      70  12  11 W7        30.07R
$$

COZ017>023-064>068-240300-
...SOUTHWEST COLORADO...

CITY           SKY/WX    TMP DP  RH WIND       PRES   REMARKS
DURANGO        PTCLDY    64  11  12 NW9       30.11R
CORTEZ         MOCLDY    67   7   9 W6        30.07R
PAGOSA SPRINGS FAIR      61   6  11 W8        30.16R
TELLURIDE      MOCLDY    56  14  18 CALM      30.25R
WOLF CREEK PAS PTCLDY    37  14  38 SW14G29   30.42S
$$

COZ009-010-012-014-032>034-037-058>063-240300-
...CENTRAL COLORADO...

CITY           SKY/WX    TMP DP  RH WIND       PRES   REMARKS
ASPEN          CLOUDY    54  28  36 CALM      30.12R
BUENA VISTA    FAIR      58  18  21 NW5       30.14R
COPPER MTN     NOT AVBL
BERTHOUD PASS  FAIR      32  21  64 NW23G29   30.36S WCI  19
COTTONWOOD PAS CLOUDY    55  14  19 W7        30.25R
GUNNISON       CLOUDY    59  23  25 SW3       30.15R
KREMMLING      CLOUDY    55  32  41 NW9G21    30.18R
LEADVILLE      CLOUDY    44  20  38 CALM      30.23R
MONARCH PASS   MOCLDY    39  18  41 W31       30.45S
SALIDA         FAIR      59  24  26 SW8       30.19R
SUNLIGHT       CLOUDY    39  21  48 W9G20     30.33R
WILKERSON PASS CLOUDY    43  14  31 NW7       30.35R
$$

COZ069>075-240300-
...SAN LUIS VALLEY/SANGRE DE CRISTO MOUNTAINS...

CITY           SKY/WX    TMP DP  RH WIND       PRES   REMARKS
ALAMOSA        CLOUDY    63  20  19 W8G32     30.12R
DEL NORTE      MOCLDY    58  19  21 SW5       30.15R
LA VETA PASS   MOCLDY    45  21  39 W12       30.40R
SAGUACHE       NOT AVBL
$$

COZ035-036-038>040-240300-
...NORTHERN COLORADO FRONT RANGE...

CITY           SKY/WX    TMP DP  RH WIND       PRES   REMARKS
DENVER INTL AP LGT RAIN  62  37  39 W10G32    30.04R
DMNS CITY PARK NOT AVBL
AURORA         NOT AVBL
FRONT RANGE AP MOCLDY    63  41  45 W15G21    30.06R
ERIE MUNI ARPT FAIR      65  36  33 NE6       30.08R
BOULDER MUN AP FAIR      63  34  34 NE8       30.02R
CENTENNIAL     CLOUDY    60  39  45 SE6       30.05R
BROOMFIELD     MOCLDY    64  36  34 VRB5      30.04R
LOVELAND       CLOUDY    55  40  56 N29G35    30.07R
LONGMONT       MOCLDY    60  39  45 N22G36    30.06R
$$

COZ041-046-047-076>085-087-088-240300-
...PIKES PEAK/PALMER DIVIDE AND SOUTHERN FOOTHILLS...

CITY           SKY/WX    TMP DP  RH WIND       PRES   REMARKS
COLO. SPRINGS  PTCLDY    58  37  45 SE7       30.08R
A. F. ACADEMY  MOCLDY    55  37  52 CALM      30.09R
SCHRIEVER AFB  NOT AVBL
CHEYENNE MTN   NOT AVBL
ELLICOTT         N/A    N/A N/A N/A SE9       30.06R
FALCON         FAIR      52  34  51 SE3       30.12R
FORT CARSON    PTCLDY    58  41  54 SW6       30.04R
LIMON          CLEAR     56  40  55 SE13      30.04R
MONUMENT HILL  MOCLDY    48  36  61 S8        30.12R
CANON CITY     FAIR      63  41  45 NE8       30.01S
WALSENBURG     FAIR      63  30  29 E13       30.04R
TRINIDAD       PTCLDY    64  27  24 SE5       30.03R
$$

COZ042>045-048>051-090-091-240300-
...NORTHEAST COLORADO...

CITY           SKY/WX    TMP DP  RH WIND       PRES   REMARKS
GREELEY ARPT   CLOUDY    56  44  64 N25G32    30.04R
AKRON          PTCLDY    57  43  59 SE13      30.00R
BURLINGTON     PTCLDY    52  41  66 SE10      30.04R
WRAY           FAIR      59  39  47 SE10      30.01S
YUMA           NOT AVBL
STERLING       NOT AVBL
HOLYOKE        FAIR      59  41  51 SE10      30.01S
FORT MORGAN    FAIR      62  40  45 S9G20     29.98R
$$

COZ086-089-092>099-240300-
...SOUTHEAST COLORADO...

CITY           SKY/WX    TMP DP  RH WIND       PRES   REMARKS
PUEBLO         PTCLDY    66  35  31 E7        29.98R
LA JUNTA       CLEAR     69  42  37 SE10      29.96R
LAMAR          CLEAR     62  42  47 SE8       29.97R
SPRINGFIELD      N/A     59  42  53 S10       30.02R
$$





USA.gov is the U.S. government's official web portal to all federal, state and local government web resources and services.